Location: Appeville
(49.3218°N, 1.3427°W)
Time: 22:37:05
(UTC+00:00)

Meteor 1-25 Rocket - Pass Details

Date: 08 December 2019
Orbit: 838 x 890 km, 81.2° (Epoch: 18 January)

Event Time Altitude Azimuth Distance (km) Brightness Sun altitude
Rises 05:57:33 0° 198° (SSW) 3,389 7.3 -16.9°
Reaches altitude 10° 05:59:58 10° 201° (SSW) 2,464 6.6 -16.5°
Maximum altitude 06:05:32 68° 284° (WNW) 919 4.1 -15.7°
Drops below altitude 10° 06:11:13 10° 8° (N) 2,514 6.6 -14.8°
Sets 06:13:42 0° 11° (N) 3,464 7.3 -14.4°
